Location: Orange Harbor Mobile Home Park
(26.6923°N, 81.7937°W)
Time: 07:44:46
(UTC+00:00)

Cosmos 841 Rocket - Pass Details

Date: 19 September 2020
Orbit: 746 x 772 km, 74.0° (Epoch: 29 October)

Event Time Altitude Azimuth Distance (km) Brightness Sun altitude
Rises 10:24:14 0° 209° (SSW) 3,192 6.4 -12.1°
Reaches altitude 10° 10:26:41 10° 215° (SW) 2,274 5.6 -11.5°
Maximum altitude 10:31:36 45° 288° (WNW) 1,024 3.8 -10.4°
Drops below altitude 10° 10:36:36 10° 1° (N) 2,300 6.1 -9.3°
Sets 10:39:05 0° 7° (N) 3,233 6.9 -8.8°
